EW5195 Weather Reports


time (UTC)temp
C
wind
direction
speed
KPH
gust
KPH
rain 1hr
cm
rain 24hr
cm
rain mn
cm
humidity
%
barometer
mb
20260502163055 12 348 3.2 12.9 0.00 0.00 0.00 56 1015.0
20260502161606 12 5 1.6 8.0 0.00 0.00 0.00 57 1015.2
20260502160108 12 5 1.6 8.0 0.00 0.00 0.00 58 1015.0
20260502151610 12 336 1.6 8.0 0.00 0.00 0.00 60 1015.1
20260502150126 11 0 1.6 8.0 0.00 0.00 0.00 60 1015.2
20260502130105 11 342 4.8 12.9 0.00 0.00 0.00 72 1014.7
20260502123102 11 360 4.8 11.3 0.00 0.00 0.00 74 1014.5
20260502121605 11 347 3.2 6.4 0.00 0.00 0.00 77 1014.3
20260502120116 11 28 0.0 4.8 0.00 0.00 0.00 79 1014.3
20260502114622 10 0 0.0 3.2 0.00 0.00 0.00 79 1014.3
20260502113114 10 360 0.0 6.4 0.00 0.00 0.00 80 1014.3
20260502111608 10 11 0.0 4.8 0.00 0.00 0.00 80 1014.2
20260502110103 10 17 0.0 4.8 0.00 0.00 0.00 82 1014.3
20260502104556 10 0 0.0 3.2 0.00 0.00 0.00 85 1014.2
20260502103114 9 0 0.0 0.0 0.00 0.00 0.00 88 1014.0
20260502101611 8 0 0.0 0.0 0.00 0.00 0.00 91 1013.7
20260502090109 8 0 0.0 0.0 0.00 0.00 0.00 90 1013.3
20260502070059 10 0 0.0 0.0 0.00 0.00 0.00 87 1013.1
20260502064555 10 0 0.0 0.0 0.00 0.00 0.00 87 1013.0
20260502063121 10 0 0.0 0.0 0.00 0.00 0.00 86 1013.1
20260502061555 10 0 0.0 0.0 0.00 0.00 0.00 84 1013.2
20260502054615 11 0 0.0 0.0 0.00 0.00 0.00 83 1013.4
20260502053101 11 0 0.0 0.0 0.00 0.00 0.00 82 1013.6
20260502051554 11 0 0.0 0.0 0.00 0.00 0.00 80 1013.7
20260502050054 12 0 0.0 0.0 0.00 0.00 0.00 79 1013.9
20260502044552 12 0 0.0 6.4 0.00 0.00 0.00 78 1013.9
20260502043058 12 0 0.0 8.0 0.00 0.00 0.00 78 1014.1
20260502041553 12 0 0.0 4.8 0.00 0.00 0.00 77 1014.2
20260502040055 12 0 0.0 4.8 0.00 0.00 0.00 76 1014.1
20260502034551 12 0 0.0 1.6 0.00 0.00 0.00 75 1014.0
20260502033052 13 0 0.0 6.4 0.00 0.00 0.00 75 1013.9
20260502031551 13 0 0.0 8.0 0.00 0.00 0.00 74 1013.7
20260502030106 13 0 0.0 6.4 0.00 0.00 0.00 73 1013.5
20260502024554 13 197 0.0 3.2 0.00 0.00 0.00 71 1013.5
20260502023057 13 0 0.0 4.8 0.00 0.00 0.00 70 1013.7
20260502021555 13 0 0.0 6.4 0.00 0.00 0.00 69 1013.6
20260502020054 13 0 0.0 8.0 0.00 0.00 0.00 69 1013.5
20260502014551 13 0 0.0 3.2 0.00 0.00 0.00 67 1013.5
20260502013057 13 0 0.0 3.2 0.00 0.00 0.00 67 1013.4
20260502011556 13 0 0.0 0.0 0.00 0.00 0.00 66 1013.1
20260502010057 13 0 0.0 0.0 0.00 0.00 0.00 65 1012.9
20260502004556 14 0 0.0 0.0 0.00 0.00 0.00 63 1012.6
20260502003055 15 0 0.0 0.0 0.00 0.00 0.00 60 1012.5
20260502001553 15 0 0.0 1.6 0.00 0.00 0.00 57 1012.5
20260502000058 16 0 0.0 0.0 0.00 0.00 0.00 53 1012.5
20260501234553 16 0 0.0 1.6 0.00 0.00 0.00 53 1012.2
20260501233059 17 0 0.0 4.8 0.00 0.00 0.00 49 1012.2
20260501231551 17 0 0.0 3.2 0.00 0.00 0.00 47 1012.2
20260501230053 17 0 0.0 4.8 0.00 0.00 0.00 49 1012.3
20260501224554 18 0 0.0 6.4 0.00 0.00 0.00 44 1012.2
20260501223059 18 0 0.0 6.4 0.00 0.00 0.00 43 1012.4
20260501221554 18 0 1.6 11.3 0.00 0.00 0.00 40 1012.5
20260501220054 18 0 0.0 11.3 0.00 0.00 0.00 40 1012.5
20260501214554 19 170 0.0 9.7 0.00 0.00 0.00 42 1012.4
20260501213105 20 80 0.0 6.4 0.00 0.00 0.00 43 1012.4
20260501211558 20 0 0.0 8.0 0.00 0.00 0.00 39 1012.5
20260501210058 20 0 0.0 11.3 0.00 0.00 0.00 39 1012.4
20260501204611 20 121 0.0 8.0 0.00 0.00 0.00 39 1012.5
20260501203100 20 219 0.0 4.8 0.00 0.00 0.00 39 1012.7
20260501201552 19 0 0.0 6.4 0.00 0.00 0.00 42 1013.1
20260501200052 19 0 1.6 8.0 0.00 0.00 0.00 41 1013.5
20260501194555 19 0 1.6 6.4 0.00 0.00 0.00 41 1013.6
20260501193055 19 0 0.0 8.0 0.00 0.00 0.00 43 1013.6
20260501191602 19 202 0.0 6.4 0.00 0.00 0.00 44 1014.0
20260501190055 18 0 0.0 9.7 0.00 0.00 0.00 43 1014.2
20260501184554 18 0 0.0 4.8 0.00 0.00 0.00 46 1014.4
20260501183056 18 0 0.0 6.4 0.00 0.00 0.00 42 1014.7
20260501181618 18 0 0.0 6.4 0.00 0.00 0.00 47 1015.0
20260501174555 17 236 0.0 4.8 0.00 0.00 0.00 45 1015.2
20260501173102 17 182 1.6 8.0 0.00 0.00 0.00 46 1015.4
20260501171611 17 0 0.0 4.8 0.00 0.00 0.00 50 1015.6